| time (UTC) | temp F | wind direction | speed knots | gust knots | rain 1hr in | rain 24hr in | rain mn in | humidity % | barometer mb |
| 20260510180502 | 57 | 20 | 4.3 | 0.0 | 0.00 | 0.00 | 0.00 | 82 | 1014.0 |
| 20260510173502 | 59 | 20 | 4.3 | 0.0 | 0.00 | 0.00 | 0.00 | 77 | 1013.0 |
| 20260510170502 | 61 | 10 | 5.2 | 0.0 | 0.00 | 0.00 | 0.00 | 72 | 1014.0 |
| 20260510163502 | 63 | 360 | 7.0 | 0.0 | 0.00 | 0.00 | 0.00 | 68 | 1014.0 |
| 20260510160502 | 63 | 360 | 7.0 | 0.0 | 0.00 | 0.00 | 0.00 | 68 | 1014.0 |
| 20260510153503 | 64 | 350 | 8.7 | 0.0 | 0.00 | 0.00 | 0.00 | 64 | 1014.0 |
| 20260510150502 | 63 | 330 | 8.7 | 0.0 | 0.00 | 0.00 | 0.00 | 68 | 1014.0 |
| 20260510143502 | 64 | 350 | 8.7 | 0.0 | 0.00 | 0.00 | 0.00 | 64 | 1014.0 |
| 20260510140502 | 63 | 330 | 9.6 | 0.0 | 0.00 | 0.00 | 0.00 | 73 | 1014.0 |
| 20260510133503 | 64 | 320 | 9.6 | 0.0 | 0.00 | 0.00 | 0.00 | 68 | 1014.0 |
| 20260510130503 | 63 | 330 | 11.3 | 0.0 | 0.00 | 0.00 | 0.00 | 77 | 1014.0 |
| 20260510123502 | 61 | 320 | 12.2 | 0.0 | 0.00 | 0.00 | 0.00 | 77 | 1014.0 |
| 20260510120503 | 59 | 300 | 11.3 | 0.0 | 0.00 | 0.00 | 0.00 | 82 | 1015.0 |
| 20260510113503 | 57 | 290 | 11.3 | 0.0 | 0.00 | 0.00 | 0.00 | 88 | 1015.0 |
| 20260510110503 | 57 | 300 | 11.3 | 0.0 | 0.00 | 0.00 | 0.00 | 88 | 1015.0 |
| 20260510103502 | 57 | 290 | 11.3 | 0.0 | 0.00 | 0.00 | 0.00 | 88 | 1015.0 |
| 20260510100503 | 57 | 300 | 8.7 | 0.0 | 0.00 | 0.00 | 0.00 | 94 | 1015.0 |
| 20260510093502 | 57 | 300 | 9.6 | 0.0 | 0.00 | 0.00 | 0.00 | 94 | 1015.0 |
| 20260510090502 | 57 | 300 | 9.6 | 0.0 | 0.00 | 0.00 | 0.00 | 94 | 1015.0 |
| 20260510083502 | 57 | 300 | 9.6 | 0.0 | 0.00 | 0.00 | 0.00 | 94 | 1015.0 |
| 20260510080503 | 57 | 300 | 11.3 | 0.0 | 0.00 | 0.00 | 0.00 | 88 | 1015.0 |
| 20260510073503 | 57 | 300 | 9.6 | 0.0 | 0.00 | 0.00 | 0.00 | 94 | 1015.0 |
| 20260510070502 | 55 | 290 | 9.6 | 0.0 | 0.00 | 0.00 | 0.00 | 94 | 1015.0 |
| 20260510063502 | 55 | 290 | 11.3 | 0.0 | 0.00 | 0.00 | 0.00 | 94 | 1015.0 |
| 20260510060502 | 55 | 300 | 8.7 | 0.0 | 0.00 | 0.00 | 0.00 | ||
| 20260510053502 | 55 | 300 | 9.6 | 0.0 | 0.00 | 0.00 | 0.00 | 94 | 1015.0 |
| 20260510050502 | 55 | 310 | 9.6 | 0.0 | 0.00 | 0.00 | 0.00 | 94 | 1015.0 |
| 20260510043502 | 55 | 320 | 13.0 | 0.0 | 0.00 | 0.00 | 0.00 | 94 | 1015.0 |
| 20260510040502 | 55 | 320 | 13.0 | 0.0 | 0.00 | 0.00 | 0.00 | 94 | 1015.0 |
| 20260510033502 | 55 | 320 | 12.2 | 0.0 | 0.00 | 0.00 | 0.00 | 94 | 1015.0 |
| 20260510030501 | 55 | 330 | 13.0 | 0.0 | 0.00 | 0.00 | 0.00 | 94 | 1014.0 |
| 20260510023503 | 55 | 320 | 12.2 | 0.0 | 0.00 | 0.00 | 0.00 | 94 | 1014.0 |
| 20260510020502 | 55 | 330 | 11.3 | 0.0 | 0.00 | 0.00 | 0.00 | 100 | 1014.0 |
| 20260510013503 | 55 | 330 | 11.3 | 0.0 | 0.00 | 0.00 | 0.00 | 100 | 1014.0 |
| 20260510010503 | 55 | 330 | 9.6 | 0.0 | 0.00 | 0.00 | 0.00 | 100 | 1015.0 |
| 20260510003502 | 55 | 320 | 7.8 | 0.0 | 0.00 | 0.00 | 0.00 | 100 | 1015.0 |
| 20260510000503 | 55 | 330 | 9.6 | 0.0 | 0.00 | 0.00 | 0.00 | 100 | 1015.0 |
| 20260509233502 | 57 | 320 | 9.6 | 0.0 | 0.00 | 0.00 | 0.00 | 94 | 1015.0 |
| 20260509230502 | 57 | 330 | 9.6 | 0.0 | 0.00 | 0.00 | 0.00 | 94 | 1015.0 |
| 20260509223503 | 57 | 330 | 9.6 | 0.0 | 0.00 | 0.00 | 0.00 | 94 | 1016.0 |
| 20260509220502 | 57 | 330 | 9.6 | 0.0 | 0.00 | 0.00 | 0.00 | 94 | 1016.0 |
| 20260509213502 | 57 | 320 | 7.0 | 0.0 | 0.00 | 0.00 | 0.00 | 94 | 1016.0 |
| 20260509210503 | 57 | 330 | 7.8 | 0.0 | 0.00 | 0.00 | 0.00 | 94 | 1016.0 |
| 20260509203502 | 57 | 320 | 5.2 | 0.0 | 0.00 | 0.00 | 0.00 | 94 | 1016.0 |
| 20260509200503 | 59 | 330 | 8.7 | 0.0 | 0.00 | 0.00 | 0.00 | 88 | 1016.0 |
| 20260509193503 | 59 | 330 | 8.7 | 0.0 | 0.00 | 0.00 | 0.00 | 88 | 1016.0 |
| 20260509190502 | 59 | 330 | 7.8 | 0.0 | 0.00 | 0.00 | 0.00 | 94 | 1016.0 |
| 20260509183502 | 59 | 320 | 6.1 | 0.0 | 0.00 | 0.00 | 0.00 | 94 | 1016.0 |